Litchfield, MN

3:40 PM CST on November 17, 2017 (GMT -0600)
Litchfield Municipal

Weather History for KLJF - April, 2012

Change the Weather History Date:

Thursday, April 19, 2012

  Actual Average Record
Temperature  
Mean Temperature 42 °F -  
Max Temperature 46 °F 60 °F 88 °F (1985)
Min Temperature 37 °F 39 °F 22 °F (1988)
Degree Days  
Heating Degree Days 22    
Moisture  
Dew Point 32 °F    
Average Humidity 62    
Maximum Humidity 81    
Minimum Humidity 46    
Precipitation  
Precipitation 0.00 in - - ()
Sea Level Pressure  
Sea Level Pressure 30.00 in    
Wind  
Wind Speed 8 mph (NE)    
Max Wind Speed 16 mph    
Max Gust Speed 22 mph    
Visibility 10 miles    
Events Rain    
Averages and records for this station are not official NWS values.
T = Trace of Precipitation, MM = Missing Value Source: NWS Daily Summary

Daily Weather History Graph

Daily Weather History Graph

Search for Another Location

Airport or City:

Trip Planner

Search our weather history database for the weather conditions in past years. The results will help you decide how hot, cold, wet, or windy it might be!

Date:

Astronomy

Apr. 19, 2012 Rise Set
Actual Time 6:25 AM CDT 8:09 PM CDT
Civil Twilight 5:54 AM CDT 8:40 PM CDT
Nautical Twilight 5:16 AM CDT 9:18 PM CDT
Astronomical Twilight 4:35 AM CDT 10:00 PM CDT
Moon 5:22 AM CDT (4/19) 6:56 PM CDT (4/19)
Length of Visible Light 14h 46m
Length of Day
13h 44m
Waning Crescent, 2% of the Moon is Illuminated
Apr 19
Waning Crescent
Apr 21
New
Apr 29
First Quarter
May 5
Full
May 12
Last Quarter

Hourly Weather History & Observations

Time (CDT) Temp. Windchill Dew Point Humidity Pressure Visibility Wind Dir Wind Speed Gust Speed Precip Events Conditions
12:12 AM 44.6 °F 41.4 °F 39.2 °F 81% 30.02 in 10.0 mi NNE 5.8 mph - N/A   Clear
12:33 AM 44.6 °F 43.1 °F 39.2 °F 81% 30.02 in 10.0 mi NE 3.5 mph - N/A   Clear
12:53 AM 44.6 °F 43.1 °F 39.2 °F 81% 30.02 in 10.0 mi NE 3.5 mph - N/A   Clear
1:13 AM 44.6 °F 42.2 °F 39.2 °F 81% 30.03 in 10.0 mi ENE 4.6 mph - N/A   Clear
1:33 AM 44.6 °F 42.2 °F 39.2 °F 81% 30.02 in 10.0 mi ENE 4.6 mph - N/A   Clear
1:52 AM 44.6 °F 43.1 °F 39.2 °F 81% 30.02 in 10.0 mi East 3.5 mph - N/A   Scattered Clouds
2:13 AM 44.6 °F - 39.2 °F 81% 30.03 in 10.0 mi Calm Calm - N/A   Scattered Clouds
2:33 AM 44.6 °F 43.1 °F 37.4 °F 76% 30.03 in 10.0 mi ENE 3.5 mph - N/A   Mostly Cloudy
2:52 AM 44.6 °F 42.2 °F 37.4 °F 76% 30.03 in 10.0 mi ENE 4.6 mph - N/A   Overcast
3:13 AM 44.6 °F 40.7 °F 37.4 °F 76% 30.02 in 10.0 mi ENE 6.9 mph - N/A   Overcast
3:33 AM 44.6 °F 40.2 °F 37.4 °F 76% 30.02 in 10.0 mi East 8.1 mph - N/A   Overcast
3:52 AM 44.6 °F 40.2 °F 37.4 °F 76% 30.02 in 10.0 mi East 8.1 mph - N/A   Mostly Cloudy
4:13 AM 44.6 °F 41.4 °F 37.4 °F 76% 30.03 in 10.0 mi East 5.8 mph - N/A   Mostly Cloudy
4:33 AM 42.8 °F 37.5 °F 37.4 °F 81% 30.04 in 10.0 mi East 9.2 mph - N/A   Mostly Cloudy
4:52 AM 42.8 °F 37.5 °F 37.4 °F 81% 30.03 in 10.0 mi East 9.2 mph - N/A   Mostly Cloudy
5:13 AM 42.8 °F 37.5 °F 37.4 °F 81% 30.04 in 10.0 mi East 9.2 mph - N/A   Mostly Cloudy
5:33 AM 42.8 °F 37.0 °F 35.6 °F 76% 30.05 in 10.0 mi East 10.4 mph - N/A   Overcast
5:52 AM 42.8 °F 37.5 °F 35.6 °F 76% 30.04 in 10.0 mi East 9.2 mph - N/A   Mostly Cloudy
6:33 AM 42.8 °F 37.5 °F 33.8 °F 70% 30.03 in 10.0 mi East 9.2 mph 16.1 mph N/A   Scattered Clouds
7:13 AM 41.0 °F 35.2 °F 33.8 °F 76% 30.03 in 10.0 mi ENE 9.2 mph - N/A   Light Drizzle
7:33 AM 41.0 °F 36.4 °F 33.8 °F 76% 30.03 in 10.0 mi East 6.9 mph - N/A Rain Light Rain
7:53 AM 41.0 °F 35.8 °F 33.8 °F 76% 30.03 in 10.0 mi East 8.1 mph - N/A Rain Light Rain
8:32 AM 41.0 °F 34.3 °F 32.0 °F 70% 30.01 in 10.0 mi East 11.5 mph - N/A Rain Light Rain
9:13 AM 44.6 °F 38.8 °F 30.2 °F 57% 30.01 in 10.0 mi ENE 11.5 mph - N/A   Mostly Cloudy
9:32 AM 42.8 °F 35.8 °F 30.2 °F 61% 29.99 in 10.0 mi ENE 13.8 mph 17.3 mph N/A   Overcast
9:53 AM 44.6 °F 37.8 °F 28.4 °F 53% 30.00 in 10.0 mi ENE 15.0 mph 18.4 mph N/A   Overcast
10:13 AM 44.6 °F 38.4 °F 30.2 °F 57% 30.00 in 10.0 mi ENE 12.7 mph - N/A   Overcast
10:33 AM 44.6 °F 38.1 °F 30.2 °F 57% 30.00 in 10.0 mi ENE 13.8 mph - N/A   Overcast
10:53 AM 44.6 °F 37.4 °F 28.4 °F 53% 30.00 in 10.0 mi ENE 16.1 mph 21.9 mph N/A   Overcast
11:13 AM 44.6 °F 38.1 °F 28.4 °F 53% 30.01 in 10.0 mi ENE 13.8 mph - N/A   Overcast
11:32 AM 44.6 °F 38.4 °F 30.2 °F 57% 30.01 in 10.0 mi ENE 12.7 mph - N/A   Overcast
11:53 AM 46.4 °F 41.5 °F 28.4 °F 50% 30.01 in 10.0 mi ENE 10.4 mph 16.1 mph N/A   Scattered Clouds
12:13 PM 46.4 °F 42.4 °F 28.4 °F 50% 30.01 in 10.0 mi ENE 8.1 mph - N/A   Clear
12:33 PM 46.4 °F 41.5 °F 30.2 °F 53% 30.01 in 10.0 mi East 10.4 mph - N/A   Clear
12:53 PM 46.4 °F 41.1 °F 30.2 °F 53% 30.00 in 10.0 mi ENE 11.5 mph - N/A   Clear
1:12 PM 46.4 °F 41.5 °F 28.4 °F 50% 29.99 in 10.0 mi ENE 10.4 mph - N/A   Clear
1:33 PM 46.4 °F 41.1 °F 28.4 °F 50% 29.98 in 10.0 mi ENE 11.5 mph 18.4 mph N/A   Clear
1:53 PM 46.4 °F 41.1 °F 28.4 °F 50% 29.97 in 10.0 mi NE 11.5 mph 18.4 mph N/A   Clear
2:12 PM 46.4 °F 39.8 °F 28.4 °F 50% 29.97 in 10.0 mi NE 16.1 mph 19.6 mph N/A   Clear
2:33 PM 46.4 °F 40.4 °F 28.4 °F 50% 29.97 in 10.0 mi NE 13.8 mph - N/A   Clear
2:53 PM 46.4 °F 41.1 °F 28.4 °F 50% 29.98 in 10.0 mi ENE 11.5 mph - N/A   Clear
3:13 PM 46.4 °F 41.1 °F 28.4 °F 50% 29.96 in 10.0 mi ENE 11.5 mph 16.1 mph N/A   Clear
3:33 PM 46.4 °F 40.7 °F 26.6 °F 46% 29.95 in 10.0 mi NE 12.7 mph - N/A   Clear
3:52 PM 46.4 °F 40.7 °F 26.6 °F 46% 29.95 in 10.0 mi ENE 12.7 mph 18.4 mph N/A   Clear
4:13 PM 46.4 °F 41.1 °F 26.6 °F 46% 29.95 in 10.0 mi NE 11.5 mph - N/A   Clear
4:33 PM 46.4 °F 40.4 °F 26.6 °F 46% 29.94 in 10.0 mi ENE 13.8 mph - N/A   Clear
4:52 PM 46.4 °F 41.5 °F 28.4 °F 50% 29.95 in 10.0 mi NE 10.4 mph 17.3 mph N/A   Clear
5:13 PM 46.4 °F 40.4 °F 26.6 °F 46% 29.95 in 10.0 mi NE 13.8 mph 18.4 mph N/A   Clear
5:33 PM 46.4 °F 40.4 °F 26.6 °F 46% 29.95 in 10.0 mi ENE 13.8 mph 17.3 mph N/A   Clear
6:13 PM 46.4 °F 40.7 °F 28.4 °F 50% 29.95 in 10.0 mi NNE 12.7 mph - N/A   Clear
6:33 PM 46.4 °F 40.4 °F 28.4 °F 50% 29.96 in 10.0 mi ENE 13.8 mph 17.3 mph N/A   Clear
6:52 PM 46.4 °F 41.1 °F 28.4 °F 50% 29.96 in 10.0 mi NE 11.5 mph 18.4 mph N/A   Clear
7:13 PM 44.6 °F 39.7 °F 28.4 °F 53% 29.96 in 10.0 mi NE 9.2 mph - N/A   Clear
7:32 PM 44.6 °F 40.2 °F 28.4 °F 53% 29.96 in 10.0 mi NE 8.1 mph - N/A   Scattered Clouds
7:53 PM 44.6 °F 40.7 °F 28.4 °F 53% 29.96 in 10.0 mi NE 6.9 mph - N/A   Scattered Clouds
8:13 PM 44.6 °F 40.7 °F 28.4 °F 53% 29.96 in 10.0 mi NE 6.9 mph - N/A   Clear
8:32 PM 44.6 °F 40.7 °F 28.4 °F 53% 29.97 in 10.0 mi NE 6.9 mph - N/A   Clear
8:53 PM 44.6 °F 41.4 °F 28.4 °F 53% 29.98 in 10.0 mi NE 5.8 mph - N/A   Clear
9:13 PM 42.8 °F 39.3 °F 30.2 °F 61% 29.99 in 10.0 mi NNE 5.8 mph - N/A   Clear
9:32 PM 42.8 °F 40.1 °F 28.4 °F 57% 29.99 in 10.0 mi North 4.6 mph - N/A   Clear
9:53 PM 42.8 °F 40.1 °F 30.2 °F 61% 30.00 in 10.0 mi North 4.6 mph - N/A   Clear
10:13 PM 42.8 °F 40.1 °F 30.2 °F 61% 29.99 in 10.0 mi NNE 4.6 mph - N/A   Clear
10:32 PM 42.8 °F 40.1 °F 30.2 °F 61% 29.99 in 10.0 mi North 4.6 mph - N/A   Clear
10:53 PM 41.0 °F 38.0 °F 30.2 °F 65% 29.99 in 10.0 mi NNE 4.6 mph - N/A   Clear
11:13 PM 39.2 °F 35.0 °F 30.2 °F 70% 30.00 in 10.0 mi North 5.8 mph - N/A   Clear
11:32 PM 39.2 °F 35.9 °F 30.2 °F 70% 30.00 in 10.0 mi North 4.6 mph - N/A   Clear
11:53 PM 37.4 °F 33.8 °F 30.2 °F 75% 30.00 in 10.0 mi North 4.6 mph - N/A   Clear